Yamba Observation History
Time Wind Speed Temp Pressure Rel. Hum Rain
14/10:00am W 5-9 kts 19.1°c 1013.9 hPa 58% 0.0mm
14/09:30am W 7-14 kts 18.0°c 1014.0 hPa 60% 0.0mm
14/09:00am W 8-13 kts 17.0°c 1013.9 hPa 61% 0.0mm
14/08:30am W 6-11 kts 16.6°c 1013.9 hPa 67% 0.0mm
14/08:00am WNW 7-11 kts 15.6°c 1013.6 hPa 70% 0.0mm
14/07:30am WNW 7-10 kts 14.6°c 1013.2 hPa 73% 0.0mm
14/07:00am WNW 7-9 kts 13.5°c 1012.8 hPa 77% 0.0mm
14/06:30am WNW 7-9 kts 12.9°c 1012.4 hPa 80% 0.0mm
14/06:00am W 6-9 kts 12.9°c 1011.9 hPa 78% 0.0mm
14/05:30am WNW 6-8 kts 12.6°c 1011.6 hPa 82% 0.0mm
14/05:00am WNW 7-9 kts 12.6°c 1011.4 hPa 84% 0.0mm
14/04:30am WNW 6-8 kts 12.5°c 1011.2 hPa 82% 0.0mm
14/04:00am WNW 7-9 kts 13.1°c 1011.1 hPa 79% 0.0mm
14/03:30am WNW 7-11 kts 13.2°c 1010.9 hPa 80% 0.0mm
14/03:00am WNW 6-9 kts 13.3°c 1010.9 hPa 81% 0.0mm
14/02:30am W 6-9 kts 13.5°c 1011.0 hPa 81% 0.0mm
14/02:00am W 6-9 kts 13.9°c 1011.1 hPa 80% 0.0mm
14/01:30am W 6-9 kts 14.0°c 1011.5 hPa 81% 0.0mm
14/01:00am W 6-8 kts 14.0°c 1011.6 hPa 84% 0.0mm
14/12:30am W 6-9 kts 14.4°c 1011.6 hPa 89% 0.0mm
14/12:00am W 5-8 kts 15.1°c 1011.9 hPa 96% 0.0mm
Time Wind Speed Temp Pressure Rel. Hum Rain
13/11:30pm W 5-7 kts 15.4°c 1012.1 hPa 96% 0.0mm
13/11:00pm W 4-6 kts 15.6°c 1012.2 hPa 95% 0.0mm
13/10:30pm WSW 4-7 kts 16.0°c 1012.3 hPa 95% 0.0mm
13/10:00pm WSW 5-6 kts 16.4°c 1012.3 hPa 94% 0.0mm
13/09:30pm SW 6-8 kts 16.9°c 1012.3 hPa 92% 0.0mm
13/09:00pm WSW 5-6 kts 17.3°c 1012.1 hPa 92% 0.0mm
13/08:30pm WNW 5 kts 17.6°c 1012.0 hPa 93% 0.0mm
13/08:00pm W 5-6 kts 18.2°c 1011.8 hPa 89% 0.0mm
13/07:30pm SSW 1-4 kts 18.9°c 1011.5 hPa 82% 0.0mm
13/07:00pm SSE 6-7 kts 19.5°c 1011.3 hPa 80% 0.0mm
13/06:30pm SSE 8-11 kts 19.9°c 1011.0 hPa 81% 0.0mm
13/06:00pm SSE 8-10 kts 19.9°c 1010.9 hPa 82% 0.0mm
13/05:30pm SSE 4-6 kts 19.7°c 1010.6 hPa 79% 0.0mm
13/05:00pm SE 5-7 kts 20.2°c 1010.3 hPa 79% 0.0mm
13/04:30pm SE 6-9 kts 20.9°c 1009.9 hPa 76% 0.0mm
13/04:00pm W 4-6 kts 23.2°c 1009.7 hPa 44% 0.0mm
13/03:30pm NW 3-6 kts 23.7°c 1009.6 hPa 60% 0.0mm
13/03:00pm W 5-10 kts 24.4°c 1009.6 hPa 48% 0.0mm
13/02:30pm WNW 4-8 kts 24.5°c 1009.6 hPa 53% 0.0mm
13/02:00pm W 6-9 kts 23.9°c 1009.7 hPa 59% 0.0mm
13/01:30pm WSW 6-9 kts 23.0°c 1010.0 hPa 58% 0.0mm
13/01:00pm WSW 5-8 kts 23.3°c 1010.2 hPa 58% 0.0mm
13/12:30pm W 6-11 kts 23.0°c 1010.7 hPa 60% 0.0mm
13/12:00pm WSW 5-11 kts 22.6°c 1011.1 hPa 66% 0.0mm
13/11:30am WNW 6-10 kts 22.7°c 1011.7 hPa 73% 0.0mm
13/11:00am WNW 6-9 kts 21.7°c 1012.3 hPa 76% 0.0mm
13/10:30am W 6-9 kts 21.3°c 1012.6 hPa 80% 0.0mm
13/10:00am WNW 5-7 kts 20.9°c 1012.9 hPa 81% 0.0mm
13/09:30am W 5-8 kts 19.7°c 1013.3 hPa 84% 0.0mm
13/09:00am WNW 6-9 kts 18.9°c 1013.4 hPa 88% 0.6mm
13/08:30am W 5-8 kts 17.9°c 1013.6 hPa 91% 0.6mm
13/08:00am WSW 5-9 kts 17.0°c 1013.6 hPa 94% 0.6mm
13/07:30am WSW 5-10 kts 16.4°c 1013.3 hPa 97% 0.6mm
13/07:00am W 6-9 kts 16.2°c 1013.1 hPa 99% 0.6mm
13/06:30am WSW 6-9 kts 16.3°c 1012.8 hPa 99% 0.6mm
13/06:00am WSW 5-8 kts 16.6°c 1012.6 hPa 99% 0.6mm
13/05:30am WSW 5-8 kts 17.0°c 1012.7 hPa 99% 0.6mm
13/05:00am WNW 6-8 kts 17.1°c 1012.7 hPa 99% 0.4mm
13/04:30am WSW 4-6 kts 17.2°c 1012.7 hPa 99% 0.4mm
13/04:00am W 5-6 kts 17.4°c 1012.7 hPa 99% 0.4mm
13/03:30am WSW 4-7 kts 17.4°c 1012.9 hPa 99% 0.4mm
13/03:00am WSW 4-7 kts 17.7°c 1013.2 hPa 99% 0.4mm
13/02:30am WSW 3-6 kts 17.9°c 1013.4 hPa 98% 0.4mm
13/02:00am WSW 4-5 kts 18.3°c 1013.8 hPa 97% 0.4mm
13/01:30am SW 4-6 kts 18.5°c 1014.2 hPa 97% 0.4mm
13/01:00am SSW 6-9 kts 18.5°c 1014.4 hPa 98% 0.4mm
13/12:30am SSW 7-9 kts 18.4°c 1014.7 hPa 98% 0.4mm
13/12:00am SSW 6-10 kts 18.3°c 1014.9 hPa 98% 0.4mm
Time Wind Speed Temp Pressure Rel. Hum Rain
12/11:30pm SSW 7-9 kts 18.6°c 1015.2 hPa 98% 0.4mm
12/11:00pm S 7-11 kts 19.2°c 1015.4 hPa 97% 0.4mm
12/10:30pm S 8-14 kts 19.5°c 1015.5 hPa 97% 0.4mm
12/10:00pm SSW 5-6 kts 19.6°c 1015.5 hPa 98% 0.4mm
12/09:30pm SW 5-7 kts 19.6°c 1015.5 hPa 98% 0.4mm
12/09:00pm SW 5-7 kts 19.7°c 1015.7 hPa 97% 0.4mm
12/08:30pm SW 4-6 kts 19.7°c 1015.9 hPa 96% 0.4mm
12/08:00pm WSW 3-5 kts 19.7°c 1016.1 hPa 96% 0.4mm
12/07:30pm WSW 5-7 kts 19.8°c 1016.5 hPa 96% 0.4mm
12/07:00pm W 3-5 kts 20.0°c 1016.4 hPa 96% 0.4mm
12/06:30pm WNW 4-5 kts 20.1°c 1016.1 hPa 95% 0.4mm
12/06:00pm NNW 3-4 kts 20.2°c 1015.8 hPa 95% 0.4mm
12/05:30pm CALM 0 kts 20.3°c 1015.6 hPa 94% 0.4mm
12/05:00pm CALM 0 kts 20.4°c 1015.5 hPa 93% 0.4mm
12/04:30pm CALM 0 kts 20.8°c 1015.6 hPa 92% 0.4mm
12/04:00pm NNW 2-3 kts 21.2°c 1015.6 hPa 92% 0.4mm
12/03:30pm ENE 3-5 kts 21.5°c 1015.7 hPa 90% 0.4mm
12/03:00pm E 4-5 kts 21.3°c 1015.6 hPa 90% 0.4mm
12/02:30pm ESE 4-6 kts 21.7°c 1015.0 hPa 90% 0.2mm
12/02:00pm NW 1-3 kts 21.6°c 1015.7 hPa 86% 0.0mm
12/01:30pm NW 3-4 kts 22.4°c 1015.7 hPa 86% 0.0mm
12/01:00pm S 3-4 kts 22.3°c 1016.3 hPa 85% 0.0mm
12/12:30pm CALM 0 kts 22.0°c 1016.5 hPa 81% 0.0mm
12/12:00pm CALM 0 kts 21.8°c 1017.0 hPa 83% 0.0mm
12/11:30am CALM 0 kts 21.2°c 1017.4 hPa 86% 0.0mm
12/11:00am CALM 0 kts 21.1°c 1017.8 hPa 91% 0.0mm
12/10:30am SE 4-5 kts 20.5°c 1018.4 hPa 90% 0.0mm
12/10:00am NE 3-4 kts 21.0°c 1018.5 hPa 93% 0.0mm
12/09:30am N 1-4 kts 19.7°c 1018.3 hPa 97% 0.0mm
12/09:00am NW 2-4 kts 19.3°c 1018.3 hPa 99% 0.2mm
12/08:30am WSW 5-7 kts 17.8°c 1018.1 hPa 98% 0.2mm
12/08:00am SW 5-6 kts 17.6°c 1018.3 hPa 99% 0.2mm
12/07:30am SW 5-7 kts 16.9°c 1017.9 hPa 99% 0.2mm
12/07:00am WSW 3-7 kts 16.8°c 1017.7 hPa 99% 0.2mm
12/06:30am W 5-7 kts 16.9°c 1017.5 hPa 99% 0.2mm
12/06:00am WSW 5-7 kts 16.9°c 1017.2 hPa 99% 0.2mm
12/05:30am WSW 5-6 kts 17.0°c 1016.5 hPa 98% 0.2mm
12/05:00am NW 5-7 kts 17.4°c 1016.4 hPa 98% 0.2mm
12/04:30am SW 2-4 kts 17.3°c 1016.2 hPa 97% 0.2mm
12/04:00am WSW 4-6 kts 17.7°c 1016.2 hPa 98% 0.2mm
12/03:30am W 4-6 kts 17.8°c 1016.4 hPa 97% 0.2mm
12/03:00am W 3-4 kts 18.0°c 1016.1 hPa 97% 0.2mm
12/02:30am WSW 5-6 kts 18.3°c 1016.1 hPa 97% 0.2mm
12/02:00am SW 4-6 kts 18.6°c 1016.3 hPa 97% 0.2mm
12/01:30am W 6-8 kts 18.7°c 1016.8 hPa 95% 0.2mm
12/01:00am WNW 6-7 kts 18.8°c 1016.9 hPa 95% 0.0mm
12/12:30am NW 6-7 kts 19.3°c 1016.6 hPa 97% 0.0mm
12/12:00am NW 5-7 kts 19.6°c 1016.6 hPa 97% 0.0mm